STARLINK-36140, 67034

Orbit data source: Space-Track

STARLINK-36140, 67034 is a payload satellite owned by SpaceX/Seattle (US) in LEO that was launched on Thu, 11 Dec 2025 UTC via an FALCON 9 launch vehicle from the Air Force Eastern Test Range (AFETR). Payload-class satellites include a variety of spacecraft equipped with specific instruments for various scientific and technological missions. These include communications satellites like Starlink; space stations such as the ISS; scientific satellites like the Hubble; Earth observation satellites from companies like Planet Labs, Umbra, and HawkEye 360; GPS; miniature CubeSats for education and research; and military/defense satellites.

Loading next visibility...
Identifier
67034, 2025-294E
Orbit
LEO
Country
Flag of USUS
Related business
Manufacturer
SpaceX/Seattle
Mission
Operational Commercial Communications
Bus & Motor
STARLINK V2MO, Unknown motor
Mass
575 kg wet, ~530 kg dry
Launch date (UTC)
2025-12-11 (6 months ago)
Launch vehicle
FALCON 9
Launch site
Air Force Eastern Test Range (AFETR)
Object type
Payload
Rocket body
Debris
Shape & HBR
Box + 2 Pan, 17.7 m
Radar Cross Section
36.964 m², Large (>1 m²)

Expand to show TLE details & history
Last TLE update: 20 hours ago

TLE from 20 hours ago
0 STARLINK-36140
1 67034U 25294E   26171.00649947  .00016852  00000-0  62012-3 0  9994
2 67034  43.0005 180.5602 0000177 258.3168 101.7664 15.27600956 30441
Epoch: 2026-06-20T00:09Z
TLE epoch observation values (Epoch: 2026-06-20T00:09:21.554Z)
Latitude
0.00001°
Longitude
-90.00692°
Altitude
482.787 km
Speed
7.626 km/s
True Right ascension
12h 02m 14s
True Declination
0° 00' 00"
Sunlit
Object was in daylight at epoch
Visualization orbit readout
Latitude
Unknown
Longitude
Unknown
Altitude
Unknown
Speed
Unknown
Apparent Right ascension
Unknown
Apparent Declination
Unknown
Sunlit
N/A
Visualization observer readout
Local Sidereal Time
07:14:53
Azimuth
Unknown
Elevation
Unknown
Doppler factor
Unknown
Orbital elements
Apogee altitude
485.053 km
Perigee altitude
484.81 km
Semi-major axis
6,863.068 km
Eccentricity
0.00002
Inclination
43.0005°
RAAN
180.5602°
Arg. of periapsis
258.3168°
True anomaly
101.76839°
Mean anomaly
101.7664°
Eccentric anomaly
101.76739°
Mean motion
3.81738 °/min
Orbital period
94.31 mins
BSTAR
0.00062012
Loading maneuver chart data...
Computing Atmospheric mass density...
Loading historical data...
Loading historical data...
Loading historical data...
Loading historical data...
Loading historical data...
Loading historical data...
Loading historical data...

Documentation

Showing up to 5 results
|